Date,TemperatureHighF,TemperatureAvgF,TemperatureLowF,DewpointHighF,DewpointAvgF,DewpointLowF,HumidityHigh,HumidityAvg,HumidityLow,PressureMaxIn,PressureMinIn,WindSpeedMaxMPH,WindSpeedAvgMPH,GustSpeedMaxMPH,PrecipitationSumIn
2013-1-1,31.3,27.1,20.6,30.8,24.5,16.1,98,90,80,30.15,30.03,12,2,12,0.00
2013-1-2,22.8,16.7,11.0,16.8,13.5,9.7,96,87,76,30.29,30.12,10,1,10,0.00
2013-1-3,30.4,19.5,7.5,24.1,15.9,6.4,97,86,65,30.28,30.18,18,3,18,0.00
2013-1-4,31.0,26.8,23.4,23.3,20.7,18.5,86,77,66,30.30,30.19,26,6,26,0.00
2013-1-5,35.7,28.0,21.3,28.0,23.1,17.8,91,82,70,30.41,30.17,12,3,13,0.00
2013-1-6,36.2,33.6,29.2,33.2,30.0,26.8,96,86,79,30.29,30.00,17,4,17,0.03
2013-1-7,34.6,29.4,25.1,29.0,26.3,23.3,94,88,75,30.49,30.28,13,2,14,0.00
2013-1-8,40.8,30.0,19.1,31.7,26.3,18.4,99,87,67,30.38,30.27,12,1,12,0.00
2013-1-9,34.2,33.0,32.1,30.3,29.3,28.1,89,86,82,30.31,30.26,4,1,4,0.00
2013-1-10,39.9,38.4,37.6,31.7,31.0,29.8,78,74,68,30.47,30.26,11,2,11,0.00
2013-1-11,57.4,47.8,39.8,54.2,44.3,30.9,100,88,67,30.26,29.90,18,2,18,0.40
2013-1-12,60.4,55.6,48.7,58.8,54.4,48.7,100,96,86,30.05,29.87,14,3,14,0.00
2013-1-13,64.4,60.1,39.7,59.7,57.0,39.1,99,90,81,29.99,29.75,24,6,25,0.18
2013-1-14,39.6,31.2,25.3,39.2,27.5,22.4,98,86,76,30.43,29.98,18,3,19,0.00
2013-1-15,25.3,23.6,22.4,22.6,21.7,21.0,95,92,89,30.38,30.35,3,0,3,0.00
2013-1-16,34.8,32.3,30.9,28.5,27.7,25.9,90,83,70,30.04,29.95,17,4,17,0.00
2013-1-17,34.9,32.6,25.7,30.4,27.8,18.1,88,82,72,30.27,30.04,22,2,23,0.00
2013-1-18,32.9,26.0,17.9,23.2,17.7,11.8,80,70,58,30.53,30.22,30,6,32,0.00
2013-1-19,51.7,42.4,32.4,31.6,26.9,23.0,71,55,38,30.23,29.79,27,8,27,0.00
2013-1-20,46.6,30.0,21.1,35.2,20.3,13.8,76,67,52,30.18,29.75,34,7,34,0.00
2013-1-21,21.1,17.1,8.7,17.4,12.1,3.3,93,80,71,30.16,29.99,23,4,24,0.00
2013-1-22,11.1,7.2,4.6,4.3,1.5,-1.5,84,76,64,30.36,30.16,18,4,18,0.00
2013-1-23,15.6,9.9,3.9,12.5,5.1,-0.2,95,81,59,30.38,30.14,13,2,13,0.00
2013-1-24,22.0,14.4,10.5,14.7,8.8,4.4,96,79,49,30.62,30.14,14,2,14,0.00
2013-1-25,18.6,15.1,12.8,16.6,11.2,6.7,94,84,73,30.58,30.08,11,2,11,0.00
2013-1-26,26.4,21.6,15.0,22.7,18.3,13.0,95,87,72,30.50,30.14,13,2,14,0.00
2013-1-27,30.2,22.8,10.3,23.6,17.8,9.4,97,81,66,30.58,30.31,11,1,11,0.00
2013-1-28,47.9,40.1,29.1,47.9,39.7,23.8,100,98,79,30.31,30.00,17,4,17,0.44
2013-1-29,61.0,54.6,47.5,58.1,52.7,47.5,100,93,80,30.07,29.67,20,4,22,0.04
2013-1-30,66.4,56.7,36.0,59.0,52.9,34.1,98,87,73,29.68,29.16,36,8,38,0.28
2013-1-31,35.9,24.8,17.8,34.4,20.3,12.7,98,83,72,29.91,29.30,31,8,31,0.01
2013-2-1,17.8,13.6,10.8,13.6,8.1,5.8,87,78,68,30.38,29.90,25,7,26,0.00
2013-2-2,22.6,16.9,9.1,21.7,14.5,5.6,97,90,78,30.37,30.02,17,3,17,0.00
2013-2-3,22.3,19.3,15.8,20.9,16.0,12.3,96,87,75,30.10,29.92,17,3,18,0.00
2013-2-4,24.1,20.0,14.2,23.4,17.9,11.9,97,91,85,30.11,29.91,11,2,11,0.00
2013-2-5,28.2,25.4,23.0,25.8,23.6,22.0,99,93,80,29.99,29.89,11,1,11,0.00
2013-2-6,31.4,26.3,17.7,26.7,21.3,15.8,98,82,60,30.36,29.99,15,2,15,0.03
2013-2-7,46.7,32.9,20.0,33.0,25.6,15.7,86,74,56,30.33,29.92,11,2,11,0.02
2013-2-8,38.9,31.4,24.5,37.8,29.2,21.8,98,91,83,30.27,29.78,23,5,24,0.18
2013-2-9,33.9,26.0,22.1,23.8,21.0,19.0,93,81,63,30.46,30.26,15,2,19,0.00
2013-2-10,47.5,36.0,22.5,37.8,24.5,18.4,85,65,44,30.36,29.89,18,2,18,0.00
2013-2-11,52.9,42.9,34.3,46.9,37.1,26.4,99,80,63,29.94,29.69,31,8,31,0.00
2013-2-12,39.9,32.8,26.9,29.5,26.3,24.1,93,77,65,30.11,29.93,21,4,21,0.00
2013-2-13,33.7,28.2,23.1,29.2,25.8,22.4,97,90,82,29.95,29.75,11,1,11,0.00
2013-2-14,26.4,24.2,23.2,25.6,23.6,22.5,98,97,96,29.92,29.90,9,1,10,0.00
2013-2-15,36.4,31.1,24.2,29.6,25.6,21.3,96,80,65,30.12,30.02,17,3,17,0.00
2013-2-16,28.9,23.7,17.8,22.8,17.7,11.0,95,79,51,30.11,29.99,16,2,16,0.00
2013-2-17,21.4,16.7,10.9,15.7,11.6,8.3,94,80,61,30.31,30.02,19,4,20,0.00
2013-2-18,47.3,28.5,10.1,34.4,19.9,8.4,95,71,52,30.33,29.83,21,3,22,0.00
2013-2-19,47.6,32.1,16.8,39.9,28.1,13.5,98,85,59,30.01,29.65,36,8,36,0.21
2013-2-20,20.5,18.2,16.2,17.2,13.9,10.4,91,83,75,30.29,30.01,24,6,24,0.00
2013-2-21,23.6,20.3,18.3,17.4,15.8,13.9,93,82,73,30.41,30.26,14,3,15,0.00
2013-2-22,39.3,30.8,20.3,38.1,28.2,16.2,99,90,79,30.35,29.98,18,3,18,0.01
2013-2-23,38.9,34.5,26.3,34.4,30.4,24.1,94,85,71,30.02,29.89,12,2,12,0.00
2013-2-24,31.9,29.0,25.7,27.0,24.4,21.2,93,83,74,30.18,29.91,15,2,17,0.00
2013-2-25,42.0,32.7,21.7,29.1,26.1,21.0,99,77,57,30.26,30.07,12,2,12,0.00
2013-2-26,38.4,34.8,30.4,37.4,30.6,24.5,97,85,66,30.09,29.54,27,5,27,0.82
2013-2-27,40.5,37.2,32.7,39.5,36.1,31.1,99,95,87,29.68,29.52,23,4,23,0.26
2013-2-28,34.6,32.2,29.8,33.1,30.9,28.5,98,95,89,29.90,29.61,16,4,16,0.01
2013-3-1,29.9,27.6,25.2,28.9,24.9,21.8,96,89,81,30.05,29.90,17,4,17,0.00
2013-3-2,27.7,25.4,23.0,24.3,22.6,20.3,95,89,77,30.04,29.99,14,3,14,0.00
2013-3-3,26.0,23.2,20.8,23.2,20.1,17.7,95,88,77,30.08,30.00,17,3,17,0.00
2013-3-4,35.1,26.0,16.3,24.3,20.4,15.4,98,80,62,30.19,30.08,13,2,13,0.00
2013-3-5,42.2,32.1,20.9,27.1,21.8,17.3,90,67,46,30.15,29.66,21,4,24,0.00
2013-3-6,41.9,35.7,30.1,33.1,31.1,25.1,100,84,60,30.19,29.66,21,4,21,0.07
2013-3-7,39.6,33.3,30.1,33.2,30.4,27.9,97,89,73,30.37,30.18,14,2,15,0.00
2013-3-8,38.6,30.8,24.8,31.2,27.2,23.8,96,86,72,30.49,30.36,14,2,14,0.00
2013-3-9,56.8,39.0,21.6,36.3,29.6,21.3,99,72,42,30.47,30.15,10,1,10,0.00
2013-3-10,68.7,56.8,45.2,42.4,37.5,31.8,75,49,37,30.16,29.89,16,3,17,0.01
2013-3-11,60.7,54.2,43.1,50.4,42.5,37.3,97,67,44,29.90,29.59,22,4,27,0.58
2013-3-12,42.9,36.2,32.7,41.4,32.5,28.8,97,86,79,30.01,29.75,16,4,17,0.01
2013-3-13,32.6,30.6,29.6,30.6,29.5,28.8,97,95,92,29.99,29.95,7,2,10,0.00
2013-3-15,46.7,42.9,35.9,38.5,36.8,34.8,97,79,67,29.91,29.87,14,3,15,0.03
2013-3-16,37.7,34.3,28.9,37.2,33.7,26.7,99,97,91,30.03,29.66,11,2,12,0.07
2013-3-17,32.8,30.1,27.9,27.5,25.5,21.8,93,83,70,30.22,30.03,13,2,13,0.00
2013-3-18,46.6,35.9,27.9,46.6,34.2,22.1,100,93,77,30.19,29.65,22,4,22,0.53
2013-3-19,43.4,32.2,27.7,42.1,25.6,20.4,96,76,63,30.00,29.72,27,7,27,0.01
2013-3-20,33.2,27.9,21.6,23.4,20.4,17.6,86,73,55,30.00,29.91,22,4,23,0.00
2013-3-21,28.0,22.4,15.5,23.6,16.6,11.1,88,78,64,29.98,29.91,17,4,17,0.00
2013-3-22,37.9,30.3,25.5,24.8,22.5,18.8,88,72,58,30.05,29.97,16,3,17,0.00
2013-3-23,43.2,31.9,20.7,29.4,24.8,19.3,96,76,52,30.09,30.03,12,2,13,0.00
2013-3-24,36.3,31.4,26.5,31.2,24.8,23.3,88,77,64,30.03,29.51,20,5,21,0.00
2013-3-25,35.2,32.7,30.9,34.9,32.4,30.8,100,99,87,29.84,29.44,19,2,19,0.28
2013-3-26,39.7,33.9,30.9,34.5,31.7,30.3,99,91,74,30.13,29.84,17,3,17,0.06
2013-3-27,42.1,36.1,31.3,32.1,30.4,27.2,98,80,62,30.21,30.11,20,4,21,0.01
2013-3-28,43.9,37.4,32.6,32.7,29.3,27.3,81,72,57,30.30,30.19,15,3,16,0.00
2013-3-29,49.9,40.6,32.0,32.3,29.2,23.5,86,65,44,30.30,30.21,16,2,17,0.00
2013-3-30,55.8,41.1,24.4,31.1,27.6,22.5,95,63,35,30.27,30.00,12,1,14,0.00
2013-3-31,50.3,45.6,39.2,46.9,37.4,25.6,94,74,53,30.01,29.71,16,2,16,0.03
2013-4-1,48.5,38.4,31.0,42.6,26.0,16.8,84,62,42,30.08,29.70,20,5,22,0.00
2013-4-2,38.9,31.0,22.8,20.6,18.0,16.0,76,59,40,30.24,30.08,21,4,22,0.00
2013-4-3,37.2,31.4,22.3,20.9,18.2,14.3,85,59,42,30.46,30.24,20,3,23,0.00
2013-4-4,54.2,36.9,20.8,20.8,17.6,14.4,86,50,21,30.44,29.99,12,1,12,0.00
2013-4-5,49.9,38.9,27.2,35.0,26.8,19.8,92,62,40,30.23,29.96,21,3,21,0.00
2013-4-6,57.9,42.5,24.4,24.2,19.6,15.4,80,44,22,30.30,29.96,13,2,14,0.00
2013-4-7,72.2,60.5,48.8,48.1,39.7,19.6,74,47,27,30.00,29.84,30,6,30,0.00
2013-4-8,70.9,58.0,41.6,56.0,47.5,37.9,88,69,50,30.02,29.85,26,4,26,0.00
2013-4-9,80.1,67.1,49.8,60.1,55.0,46.2,93,66,49,30.08,29.86,22,4,22,0.00
2013-4-10,69.7,68.6,67.3,59.0,57.9,57.1,74,68,64,29.90,29.89,11,4,11,0.00
2013-4-12,56.6,44.5,39.5,55.6,41.2,35.8,97,88,78,29.87,29.49,24,5,26,0.43
2013-4-13,45.0,41.1,35.2,37.7,35.6,32.1,88,80,71,30.06,29.86,22,5,23,0.00
2013-4-14,61.7,45.9,29.0,43.2,36.4,28.3,98,72,47,30.18,29.99,10,2,10,0.00
2013-4-15,67.6,60.9,53.4,54.9,49.0,40.5,76,64,57,30.05,29.95,19,4,19,0.00
2013-4-16,75.1,61.0,50.9,63.5,55.8,50.6,99,83,65,30.18,29.98,23,5,23,0.31
2013-4-17,67.5,56.9,47.4,56.7,50.3,45.8,100,80,55,30.27,30.05,12,3,17,0.01
2013-4-18,84.0,71.3,58.6,66.2,60.4,56.3,95,70,45,30.07,29.65,29,6,30,0.00
2013-4-19,73.7,55.1,39.0,61.9,46.9,30.8,96,74,57,29.86,29.37,27,8,32,0.15
2013-4-20,42.7,37.9,33.0,33.1,30.0,26.3,96,74,54,30.44,29.86,24,5,24,0.03
2013-4-21,50.4,39.1,26.2,32.1,27.9,24.9,98,67,41,30.63,30.44,14,2,14,0.00
2013-4-22,66.3,51.5,37.4,42.3,35.2,27.8,77,55,37,30.48,30.22,12,2,12,0.00
2013-4-23,71.5,58.2,42.6,46.0,39.5,29.8,72,51,36,30.24,29.89,20,3,20,0.00
2013-4-24,63.1,49.8,35.7,55.6,45.8,34.6,100,87,50,30.17,29.71,16,4,22,0.73
2013-4-25,52.7,41.2,30.6,43.2,36.0,30.3,99,83,51,30.38,30.17,23,3,23,0.03
2013-4-26,60.4,45.6,30.3,40.9,34.5,27.9,100,70,34,30.51,30.38,10,1,10,0.00
2013-4-27,73.4,56.0,36.1,43.8,38.2,34.3,97,57,28,30.41,30.10,11,1,12,0.00
2013-4-28,57.4,54.5,51.4,56.4,50.2,39.4,99,86,58,30.12,29.89,12,2,12,0.52
2013-4-29,64.1,58.4,54.2,59.3,56.3,53.7,98,92,80,29.99,29.88,12,2,12,0.12
2013-4-30,76.7,63.2,48.2,59.7,55.1,48.2,100,77,50,30.11,29.99,12,2,12,0.00
2013-5-1,79.6,67.0,53.9,60.8,55.1,48.5,91,67,43,30.25,30.11,15,2,15,0.00
2013-5-2,79.2,67.5,54.8,53.8,46.3,40.4,60,47,34,30.30,30.14,18,2,18,0.00
2013-5-3,78.3,66.9,55.7,49.1,44.2,37.5,62,45,29,30.18,30.05,20,3,20,0.00
2013-5-4,71.8,62.0,51.1,48.0,42.7,36.8,65,50,30,30.15,30.03,17,3,17,0.00
2013-5-5,73.8,63.0,51.7,45.5,39.8,31.7,72,45,25,30.09,29.97,19,3,19,0.00
2013-5-6,74.0,62.8,52.3,55.5,47.9,32.8,76,58,36,30.04,29.94,16,3,16,0.00
2013-5-7,71.3,63.2,58.2,59.3,56.0,54.0,87,77,57,30.00,29.94,14,2,15,0.00
2013-5-8,71.3,64.0,58.6,58.1,55.4,52.0,94,74,54,29.97,29.90,14,2,14,0.01
2013-5-9,78.7,66.2,54.4,58.4,53.5,45.3,100,69,35,29.98,29.91,14,1,14,0.01
2013-5-10,73.3,64.0,58.6,65.4,60.4,53.3,99,88,68,29.95,29.76,36,2,38,0.37
2013-5-11,61.1,51.8,45.5,60.9,49.9,43.9,100,93,82,29.89,29.75,22,2,22,0.06
2013-5-12,49.9,44.1,35.7,44.2,34.6,30.0,95,70,52,30.10,29.88,24,4,24,0.00
2013-5-13,51.2,42.3,30.8,33.1,29.8,25.5,90,62,38,30.19,30.08,19,2,19,0.00
2013-5-14,67.3,51.5,34.5,48.3,38.0,27.9,81,61,44,30.19,29.83,19,1,19,0.00
2013-5-15,84.7,70.1,55.6,64.9,56.7,43.0,85,64,39,29.84,29.71,21,3,26,0.01
2013-5-16,66.5,63.8,61.1,59.6,57.6,53.9,93,80,66,29.77,29.75,8,0,8,0.01
2013-5-17,79.8,71.2,58.0,66.0,59.0,47.7,100,67,46,30.09,30.02,11,1,11,0.00
2013-5-18,84.8,70.5,55.3,62.8,55.8,46.6,80,60,42,30.11,29.99,11,1,11,0.00
2013-5-19,83.2,72.4,61.8,68.9,65.1,60.6,96,78,59,30.04,29.91,13,1,13,0.00
2013-5-20,84.3,73.2,64.1,74.2,68.6,63.3,98,85,68,29.99,29.85,14,2,14,0.00
2013-5-21,85.9,75.7,67.1,71.7,68.7,66.4,99,80,55,29.90,29.76,17,2,18,0.00
2013-5-22,83.8,74.6,65.4,68.4,64.9,61.4,91,72,50,29.82,29.69,22,4,23,0.00
2013-5-23,72.7,62.2,42.9,64.4,58.7,41.3,97,88,69,29.99,29.70,21,4,21,0.09
2013-5-24,45.4,42.4,33.9,41.5,37.3,32.9,97,82,68,30.33,29.99,20,4,20,0.00
2013-5-25,59.7,46.3,30.8,41.4,36.2,30.7,100,72,41,30.40,30.28,17,2,17,0.00
2013-5-26,64.8,51.2,34.0,42.8,37.2,33.0,97,63,34,30.34,30.24,13,2,13,0.00
2013-5-27,61.6,52.7,40.6,52.2,45.6,38.3,98,77,59,30.28,30.06,10,1,10,0.05
2013-5-28,82.0,67.7,53.1,70.8,61.9,51.4,99,83,61,30.08,29.91,20,2,20,0.18
2013-5-29,85.5,76.8,68.2,68.7,64.7,61.3,78,66,50,30.03,29.95,21,4,21,0.00
2013-5-30,89.2,77.3,64.1,69.5,66.0,62.1,95,69,43,30.13,30.02,16,2,16,0.00
2013-5-31,87.2,75.1,64.0,70.4,66.5,62.6,98,76,52,30.06,29.91,20,3,21,0.21
2013-6-1,83.8,74.6,65.6,72.6,68.5,64.7,98,82,62,29.95,29.72,27,4,28,0.01
2013-6-2,75.9,70.0,64.9,69.3,63.9,58.8,100,82,59,29.87,29.71,23,3,23,0.52
2013-6-3,66.2,58.8,46.3,59.0,50.1,38.7,90,74,46,30.09,29.85,13,3,13,0.00
2013-6-4,71.5,57.7,40.2,51.9,46.4,39.8,100,69,46,30.17,30.08,15,2,15,0.00
2013-6-5,81.3,65.5,49.0,61.2,52.4,46.1,92,64,42,30.15,29.90,11,2,12,0.00
2013-6-6,65.8,62.6,55.2,65.6,61.5,52.6,100,96,69,29.91,29.75,8,1,9,0.55
2013-6-7,62.6,57.6,54.8,59.5,56.5,54.8,100,96,88,29.88,29.80,11,2,13,0.01
2013-6-8,58.9,56.4,55.8,57.2,55.6,55.1,99,97,93,29.97,29.88,5,0,5,0.00
2013-6-13,71.6,66.9,60.4,63.3,58.8,54.8,97,76,59,29.83,29.64,21,5,24,0.66
2013-6-14,71.7,62.5,55.1,61.4,57.7,53.3,99,85,65,30.07,29.83,14,2,15,0.00
2013-6-15,78.7,64.8,47.9,61.0,55.2,47.8,100,74,43,30.13,29.97,10,1,10,0.00
2013-6-16,76.3,68.0,63.0,70.1,65.2,59.6,99,91,74,29.99,29.85,16,2,16,0.47
2013-6-17,82.8,69.8,62.7,70.5,64.9,59.2,100,86,46,29.95,29.88,18,1,18,0.21
2013-6-18,76.8,68.5,60.3,68.4,63.0,53.3,99,83,68,29.99,29.84,16,2,18,0.00
2013-6-19,74.5,63.8,51.6,54.8,51.6,48.8,91,66,44,30.16,29.98,16,2,16,0.00
2013-6-20,80.0,67.0,49.4,59.7,54.8,49.2,99,68,42,30.23,30.15,7,1,8,0.00
2013-6-21,86.4,73.0,56.4,65.5,60.9,55.8,99,68,45,30.23,30.12,10,1,10,0.00
2013-6-22,70.1,65.1,62.1,62.2,61.4,60.4,95,88,75,30.13,30.09,0,0,0,0.00
2013-6-23,86.3,80.5,75.3,71.7,69.4,64.0,75,68,58,30.07,29.99,0,0,0,0.00
2013-6-24,87.8,77.3,64.1,71.7,67.6,62.1,94,72,55,30.10,29.95,0,0,0,0.00
2013-6-25,88.5,76.1,67.9,77.2,70.9,66.6,99,84,63,30.01,29.83,20,1,21,0.87
2013-6-26,83.5,73.4,66.3,74.8,70.2,66.3,100,90,71,29.95,29.76,16,2,16,0.83
2013-6-27,79.8,71.9,66.6,71.9,69.0,66.6,100,91,71,29.77,29.60,11,1,11,0.39
2013-6-28,79.5,69.2,63.4,70.3,65.8,61.1,100,89,68,29.61,29.48,13,1,14,0.13
2013-6-29,79.3,67.9,60.6,68.1,64.0,60.6,100,88,62,29.67,29.52,9,1,9,0.75
2013-6-30,79.0,69.5,62.8,70.5,66.4,62.8,100,90,71,29.84,29.66,11,1,11,0.04
2013-7-1,75.8,67.8,65.0,70.1,66.1,63.8,99,94,79,29.94,29.81,12,1,12,0.80
2013-7-2,84.2,73.1,64.8,72.4,68.3,64.6,100,86,65,30.02,29.91,12,1,12,0.00
2013-7-3,85.8,74.2,68.0,73.6,70.4,67.8,100,88,63,30.12,30.01,13,1,13,0.07
2013-7-4,77.6,72.7,68.9,72.4,70.0,68.7,100,91,79,30.17,30.10,12,1,12,0.02
2013-7-5,78.5,71.6,67.8,73.3,70.3,67.8,100,96,80,30.14,30.06,14,1,14,0.22
2013-7-6,87.0,75.7,68.4,76.2,71.9,68.3,100,89,64,30.14,29.98,11,1,11,0.02
2013-7-7,79.4,73.0,67.4,70.8,68.1,64.3,96,85,69,30.08,29.97,11,2,11,0.00
2013-7-8,85.0,72.8,62.4,73.9,68.1,61.6,100,86,63,30.09,30.00,13,1,13,0.13
2013-7-9,87.2,73.9,68.2,78.7,72.0,68.2,100,94,72,30.05,29.91,21,2,21,0.56
2013-7-10,87.7,72.5,65.9,80.2,71.2,65.8,100,96,69,29.96,29.74,21,2,27,1.60
2013-7-11,75.8,68.9,59.6,66.1,62.2,57.6,100,80,56,30.00,29.89,14,2,14,0.00
2013-7-12,59.6,58.1,57.1,58.3,57.6,56.8,100,98,94,30.02,30.00,3,0,3,0.00
2013-7-13,84.5,80.0,73.6,71.2,69.7,67.7,86,70,61,30.18,30.11,11,2,11,0.00
2013-7-14,89.8,79.8,68.2,76.5,71.9,67.3,97,77,59,30.23,30.17,12,1,12,0.00
2013-7-15,92.9,81.2,70.1,76.9,73.1,69.6,99,77,54,30.30,30.20,8,1,9,0.00
2013-7-16,89.8,79.8,71.5,78.9,75.4,71.3,99,87,64,30.28,30.21,10,1,22,0.00
2013-7-17,91.5,82.1,72.5,78.4,75.6,72.5,100,82,59,30.26,30.11,9,1,9,0.01
2013-7-18,91.5,82.7,72.7,78.7,75.8,72.5,100,80,59,30.15,29.97,10,1,10,0.00
2013-7-19,89.8,80.2,74.2,77.5,74.2,71.5,95,82,62,29.99,29.82,16,2,16,0.00
2013-7-20,79.3,73.1,69.0,73.7,70.9,68.2,100,93,80,29.89,29.76,14,2,14,0.37
2013-7-21,84.1,75.2,69.7,73.5,70.7,67.5,100,86,61,29.94,29.87,14,1,14,0.00
2013-7-22,74.7,69.5,65.5,72.9,67.9,65.3,100,94,89,29.93,29.73,9,0,9,0.45
2013-7-23,82.8,70.6,63.8,76.1,68.3,63.8,100,93,72,29.78,29.65,13,1,16,0.07
2013-7-24,70.0,65.0,57.7,67.1,58.3,54.5,97,79,62,30.00,29.74,16,3,16,0.00
2013-7-25,74.7,63.5,50.9,57.9,54.7,50.6,100,75,48,30.09,30.00,13,2,13,0.00
2013-7-26,81.0,67.6,51.9,62.2,58.1,51.9,100,74,48,30.09,29.96,11,1,11,0.00
2013-7-27,70.3,66.7,63.9,67.6,64.1,60.8,98,91,80,29.96,29.79,13,1,14,0.10
2013-7-28,70.5,63.5,56.0,63.8,56.5,52.1,100,79,55,30.01,29.83,17,2,17,0.01
2013-7-29,70.3,63.1,52.9,58.8,55.8,52.1,99,78,55,30.18,30.01,14,2,17,0.00
2013-7-30,78.0,65.9,52.8,62.7,58.8,52.8,100,79,55,30.23,30.13,10,1,10,0.00
2013-7-31,75.8,67.0,59.4,68.5,64.1,59.1,100,91,75,30.14,29.92,6,0,7,0.05
2013-8-1,79.5,70.6,62.8,67.5,64.7,60.8,100,83,54,29.92,29.83,12,2,13,0.05
2013-8-2,74.2,66.2,57.0,66.0,60.9,56.3,100,84,59,29.99,29.89,10,1,13,0.04
2013-8-3,77.7,69.4,59.5,66.9,62.2,54.5,100,80,49,29.98,29.91,14,2,14,0.17
2013-8-4,71.5,64.0,55.7,61.9,57.8,55.3,100,81,59,30.10,29.98,17,2,17,0.03
2013-8-5,74.5,63.5,53.0,60.4,56.5,52.9,100,79,54,30.12,30.00,7,0,8,0.00
2013-8-6,82.6,69.9,57.9,64.9,60.6,56.8,97,74,51,30.01,29.93,11,1,12,0.00
2013-8-7,78.4,70.0,62.4,73.5,67.3,60.8,100,91,80,29.95,29.86,23,1,24,1.23
2013-8-8,83.8,73.4,68.4,77.3,72.1,68.3,100,96,77,29.95,29.87,10,1,11,0.77
2013-8-9,78.5,70.2,61.3,70.6,65.9,58.1,100,87,56,30.01,29.85,10,1,10,0.03
2013-8-10,79.5,69.6,59.3,68.5,63.1,58.6,98,80,63,30.09,30.00,15,1,15,0.00
2013-8-11,81.8,71.3,64.6,69.4,62.9,57.8,91,75,61,30.10,29.99,10,1,10,0.00
2013-8-12,83.3,72.3,60.1,70.3,65.5,59.9,100,80,59,30.05,29.83,12,1,12,0.00
2013-8-13,73.8,67.7,52.3,69.4,62.2,50.6,98,83,63,29.98,29.77,18,3,18,0.00
2013-8-14,52.9,51.9,51.2,51.9,51.1,50.2,98,96,94,30.00,29.98,1,0,1,0.00
2013-8-16,75.3,70.8,63.5,58.2,55.8,51.7,82,59,45,30.17,30.13,11,2,11,0.00
2013-8-17,79.5,67.9,55.4,64.2,58.7,54.6,98,74,49,30.22,30.16,12,1,12,0.00
2013-8-18,73.8,66.0,57.1,67.1,62.6,56.3,97,89,78,30.20,30.10,7,0,7,0.00
2013-8-19,80.0,69.8,62.7,66.9,64.0,56.8,98,83,48,30.13,30.05,10,1,10,0.00
2013-8-20,84.8,70.6,58.1,69.0,63.6,58.1,100,80,51,30.17,30.08,13,0,13,0.00
2013-8-21,85.8,72.4,59.6,69.9,65.8,59.6,100,81,54,30.17,30.03,8,1,9,0.00
2013-8-22,82.0,72.2,63.5,74.0,69.3,63.3,99,91,75,30.07,29.95,13,1,14,0.04
2013-8-23,81.5,72.5,63.9,70.7,64.5,55.8,100,78,50,30.15,29.97,17,2,17,0.06
2013-8-24,81.3,67.4,53.4,61.5,56.2,50.0,99,71,38,30.29,30.15,11,1,11,0.00
2013-8-25,83.1,69.4,53.7,67.0,61.0,53.7,100,76,50,30.33,30.20,11,1,11,0.00
2013-8-26,84.9,74.1,60.8,71.8,65.7,58.7,93,75,55,30.22,29.99,11,2,15,0.00
2013-8-27,79.7,74.2,70.2,74.3,71.6,69.0,100,91,83,30.01,29.88,11,1,11,0.35
2013-8-28,80.0,75.8,70.5,75.0,73.3,69.8,98,92,82,29.92,29.79,14,2,14,0.00
2013-8-29,85.2,74.7,68.2,72.9,69.9,66.8,100,86,58,30.03,29.92,10,1,10,0.00
2013-8-30,86.8,75.5,63.0,73.8,69.8,62.9,100,83,62,29.99,29.79,14,1,14,0.00
2013-8-31,84.7,76.7,69.2,74.8,71.5,69.0,100,84,66,29.81,29.67,15,2,16,0.07
2013-9-1,83.0,75.9,70.6,74.2,71.6,70.0,100,87,69,29.79,29.72,11,1,11,0.00
2013-9-2,81.2,71.4,62.0,72.9,69.1,61.5,99,92,72,29.83,29.72,13,1,14,0.78
2013-9-3,64.4,61.1,54.1,62.3,58.5,54.1,100,91,77,30.04,29.83,13,1,13,0.00
2013-9-4,79.1,64.3,49.7,63.2,57.7,49.7,100,81,50,30.13,30.03,14,1,14,0.01
2013-9-5,72.4,64.3,52.0,61.5,56.6,47.3,97,77,45,30.21,30.05,14,2,14,0.00
2013-9-6,75.8,59.7,45.2,54.5,50.1,44.9,100,74,39,30.27,30.11,9,0,9,0.00
2013-9-7,81.0,66.1,49.1,66.5,58.4,48.9,100,78,50,30.12,29.92,13,1,13,0.00
2013-9-8,75.0,68.8,59.7,70.0,64.4,54.1,99,86,72,30.04,29.89,15,2,15,0.00
2013-9-9,85.2,68.0,53.3,75.0,64.6,52.3,99,89,63,30.06,29.96,16,1,16,0.20
2013-9-10,73.6,73.1,71.9,71.0,70.7,70.0,95,92,91,30.04,29.99,12,2,12,0.00
2013-9-11,73.6,73.6,73.6,70.9,70.9,70.9,91,91,91,30.03,30.03,2,2,12,0.00
2013-9-15,65.4,64.5,63.8,54.4,53.7,52.8,69,67,65,30.14,30.13,6,1,6,0.00
2013-9-20,80.5,75.6,71.4,73.1,71.9,68.2,94,88,77,29.80,29.76,10,1,10,0.00
2013-9-21,71.2,64.8,54.2,68.4,62.9,54.0,100,94,69,29.79,29.61,14,1,15,0.49
2013-9-22,57.0,53.7,50.3,54.0,49.8,47.4,100,87,72,30.04,29.79,17,1,17,0.01
2013-9-23,58.6,52.6,44.1,49.6,47.7,43.6,99,84,66,30.16,30.04,10,1,10,0.00
2013-9-24,69.2,52.6,38.9,51.9,46.8,38.9,100,83,51,30.14,29.98,11,1,11,0.00
2013-9-25,73.3,57.6,44.6,59.5,52.5,44.6,100,85,54,30.00,29.88,11,1,11,0.01
2013-9-26,74.6,60.2,45.6,57.9,51.4,45.6,100,76,41,30.10,29.95,8,1,11,0.00
2013-9-27,72.2,59.6,48.2,56.8,52.6,47.4,100,80,52,30.19,30.09,13,2,13,0.00
2013-9-28,76.8,62.7,50.3,61.5,56.4,50.3,100,81,54,30.23,30.10,10,0,10,0.00
2013-9-29,74.6,62.8,52.7,63.6,58.2,51.8,98,85,64,30.11,29.97,12,1,13,0.00
2013-9-30,65.0,62.0,59.0,62.5,60.4,58.3,99,94,87,30.02,29.96,11,1,11,0.00
2013-10-1,77.0,65.0,55.5,66.1,60.7,55.5,100,87,60,30.07,29.98,10,1,14,0.01
2013-10-2,80.4,67.9,57.6,69.8,63.6,57.4,100,87,63,30.08,30.01,10,1,10,0.00
2013-10-3,80.5,67.9,62.9,72.2,66.4,62.6,100,95,74,30.06,29.98,12,1,14,0.53
2013-10-4,79.6,68.8,62.9,70.9,67.1,62.9,100,95,67,30.06,30.01,12,1,14,0.10
2013-10-5,74.3,68.9,64.1,72.4,68.2,64.1,100,98,88,30.04,29.93,8,0,8,0.43
2013-10-6,80.3,70.9,59.7,70.8,67.5,58.3,100,89,69,29.94,29.68,19,2,19,0.06
2013-10-7,59.6,53.2,46.6,58.5,49.0,45.0,100,86,67,30.14,29.71,26,2,26,0.85
2013-10-8,66.3,53.9,42.1,51.9,47.4,42.1,100,81,49,30.30,30.14,12,1,12,0.00
2013-10-9,69.8,54.6,42.3,50.7,46.5,42.3,100,77,44,30.32,30.22,13,1,13,0.00
2013-10-10,69.9,53.2,41.1,51.5,46.4,40.6,99,79,45,30.23,30.09,6,0,6,0.00
2013-10-11,72.5,58.4,44.5,60.3,51.1,44.5,100,79,42,30.13,30.04,12,1,13,0.00
2013-10-12,55.5,53.3,52.2,54.0,52.0,49.2,99,95,88,30.08,30.06,1,0,1,0.00
2013-10-13,63.4,59.6,58.1,61.2,58.8,55.7,99,97,91,30.27,30.22,9,0,9,0.02
2013-10-14,66.5,58.5,50.0,56.2,52.2,45.9,93,80,64,30.33,30.22,14,2,14,0.00
2013-10-15,65.8,56.7,44.3,62.5,55.0,43.8,100,94,84,30.24,29.95,9,0,9,0.00
2013-10-16,64.4,60.2,51.0,63.6,59.6,50.1,100,98,84,29.95,29.81,14,1,14,0.47
2013-10-17,55.1,48.2,41.6,51.2,47.4,41.6,100,97,82,29.92,29.77,15,1,15,0.21
2013-10-18,61.4,50.9,41.6,49.4,45.4,41.4,100,83,57,30.02,29.91,16,2,17,0.00
2013-10-19,52.4,45.6,39.8,49.1,43.7,39.3,98,93,85,29.95,29.73,17,1,17,0.16
2013-10-20,59.0,47.0,37.1,45.0,41.1,36.4,98,81,55,30.02,29.94,19,3,19,0.00
2013-10-21,64.2,52.6,42.0,49.7,43.2,39.0,92,72,48,30.02,29.85,18,2,18,0.01
2013-10-22,50.9,43.2,35.0,49.2,35.5,30.3,98,75,50,29.98,29.86,17,2,17,0.11
2013-10-23,44.9,38.7,34.2,39.6,35.5,31.8,99,88,63,29.97,29.79,17,1,17,0.02
2013-10-24,44.7,37.4,32.3,35.9,33.3,30.3,96,85,62,30.19,29.95,16,2,16,0.03
2013-10-25,46.2,38.1,30.8,36.5,33.0,30.3,98,83,57,30.37,30.18,14,2,14,0.01
2013-10-26,45.9,39.8,33.0,38.7,31.6,28.2,88,73,55,30.26,29.90,19,4,24,0.00
2013-10-27,51.7,39.9,29.6,37.8,34.9,29.4,100,84,56,30.12,30.02,13,1,13,0.00
2013-10-28,57.6,42.6,28.4,43.4,35.9,28.3,100,80,47,30.34,30.11,9,0,9,0.00
2013-10-29,56.9,44.0,31.8,44.5,39.7,31.8,100,86,59,30.41,30.26,7,0,7,0.01
2013-10-30,64.8,53.2,39.7,56.1,47.6,38.6,97,82,66,30.26,30.05,7,0,8,0.00
2013-10-31,65.4,60.5,57.1,60.2,58.7,56.1,100,94,79,30.06,29.33,30,4,30,0.40
2013-11-1,62.9,54.6,49.0,59.2,49.6,44.9,98,83,67,29.70,29.27,26,4,27,0.36
2013-11-2,49.2,45.7,42.2,47.4,44.2,41.1,99,94,80,30.03,29.67,15,2,15,0.08
2013-11-3,47.2,39.9,31.8,41.3,35.3,27.5,100,84,60,30.48,30.02,11,1,12,0.01
2013-11-4,44.9,37.2,28.8,31.8,28.8,25.4,88,72,56,30.54,30.41,11,1,11,0.00
2013-11-5,60.2,49.5,40.8,45.4,39.2,31.2,79,67,55,30.47,30.28,10,1,10,0.00
2013-11-6,67.9,55.6,42.2,58.4,48.7,36.6,99,78,60,30.29,29.89,24,3,24,0.42
2013-11-7,56.1,42.3,39.3,55.5,37.5,29.5,99,83,63,30.15,29.90,20,3,20,0.21
2013-11-8,42.7,35.7,27.3,35.0,30.2,26.1,97,81,57,30.32,30.12,16,2,16,0.00
2013-11-9,57.6,44.5,28.3,41.9,33.9,27.1,96,68,44,30.29,29.96,26,4,26,0.00
2013-11-10,51.4,42.0,30.4,42.0,35.3,28.5,95,77,63,30.31,29.98,22,4,22,0.00
2013-11-11,46.9,38.0,29.0,39.2,33.0,28.2,99,83,58,30.29,30.05,20,3,20,0.11
2013-11-12,33.3,29.0,26.0,31.1,26.5,22.3,99,90,74,30.54,30.21,18,3,18,0.03
2013-11-13,37.1,30.2,24.7,26.0,22.6,20.1,84,73,59,30.59,30.36,17,4,17,0.02
2013-11-14,42.2,31.8,28.9,24.0,22.4,21.4,76,68,47,30.36,30.17,17,5,17,0.01
2013-11-15,52.2,44.8,38.3,35.2,28.4,23.3,67,52,38,30.20,30.11,19,3,19,0.00
2013-11-16,58.9,50.0,38.0,52.5,45.7,35.1,93,85,68,30.21,29.95,16,2,16,0.00
2013-11-17,60.7,57.0,51.6,59.0,54.9,44.4,99,93,71,29.96,29.44,32,7,32,0.87
2013-11-18,51.5,43.8,35.7,44.6,36.7,28.3,90,76,62,30.12,29.61,30,7,31,0.00
2013-11-19,39.1,33.8,25.5,29.6,27.3,23.3,93,77,63,30.44,30.11,15,2,16,0.00
2013-11-20,47.2,35.9,26.6,25.9,23.2,19.4,93,63,37,30.47,30.34,15,2,15,0.00
2013-11-21,49.7,41.2,35.5,43.8,34.5,21.4,93,78,50,30.42,30.21,5,1,10,0.09
2013-11-22,49.9,48.7,47.2,48.7,46.5,43.2,99,92,78,30.22,30.17,10,2,10,0.03
2013-11-28,26.2,25.8,25.1,22.0,21.7,21.4,87,85,82,30.47,30.39,2,0,3,0.00
2013-11-29,32.9,25.0,15.5,23.3,20.0,13.8,95,82,61,30.69,30.47,7,1,8,0.03
2013-11-30,40.4,30.4,0.0,28.1,23.9,19.4,84,77,60,30.64,30.22,11,2,12,0.05
2013-12-1,39.7,35.5,30.2,31.5,28.8,25.9,85,77,70,30.23,30.01,9,2,10,0.02
2013-12-2,39.9,36.0,33.1,35.3,32.6,30.5,91,87,82,29.94,29.87,8,0,8,0.00
2013-12-3,53.7,41.5,33.5,43.9,37.3,31.1,93,85,67,29.93,29.87,10,1,10,0.00
2013-12-4,58.5,50.0,40.3,50.0,44.7,37.8,92,82,73,29.97,29.80,10,1,11,0.00
2013-12-5,60.2,51.8,33.2,57.7,47.2,31.1,94,84,67,30.10,29.78,13,4,17,0.13
2013-12-6,33.2,29.7,26.0,31.4,28.1,24.4,95,94,91,30.36,30.07,11,2,11,0.03
2013-12-7,26.1,22.9,19.1,24.6,19.1,15.0,94,85,72,30.59,30.36,9,2,10,0.00
2013-12-8,28.9,25.1,0.0,27.4,20.5,14.4,94,82,69,30.52,0.00,15,4,16,0.00
2013-12-9,34.2,30.9,25.2,33.2,27.4,19.9,96,87,77,30.19,29.98,19,5,20,0.00
2013-12-10,25.9,21.9,18.7,20.2,14.9,9.4,91,75,50,30.32,30.07,23,4,23,0.00
2013-12-11,27.1,20.2,15.9,20.4,14.4,10.8,89,78,66,30.46,30.29,17,4,18,0.00
2013-12-12,18.5,14.1,6.9,13.1,4.5,-0.8,88,66,44,30.53,30.31,21,4,21,0.00
2013-12-13,33.7,23.8,16.8,21.6,14.0,5.7,80,66,56,30.32,30.24,14,2,16,0.01
2013-12-14,35.8,30.8,27.4,34.8,28.3,21.0,96,90,76,30.27,29.69,10,2,11,0.26
2013-12-15,34.9,23.4,15.9,33.9,20.0,10.6,96,87,76,30.10,29.69,16,6,22,0.03
2013-12-16,23.1,19.1,14.3,21.0,13.0,10.3,92,77,63,30.23,30.06,11,2,11,0.00
2013-12-17,29.0,25.6,22.3,27.7,22.7,19.0,95,89,76,30.11,29.98,16,3,16,0.00
2013-12-18,29.4,25.4,22.7,22.6,20.3,17.5,89,81,68,30.22,30.08,19,4,20,0.00
2013-12-19,46.4,38.4,29.5,35.1,27.8,19.3,81,66,58,30.11,30.00,19,4,19,0.10
2013-12-20,53.9,48.0,43.4,52.0,41.5,30.5,95,79,56,30.00,29.84,18,4,18,0.14
2013-12-21,63.5,56.0,50.3,60.5,54.7,49.1,98,95,90,29.85,29.48,21,4,22,1.62
2013-12-22,67.6,55.7,46.1,61.0,50.2,41.6,97,82,60,29.96,29.43,31,7,31,0.51
2013-12-23,46.5,33.7,27.3,41.9,28.3,19.8,94,80,69,30.33,29.95,16,4,16,0.03
2013-12-24,27.3,17.5,12.9,22.5,12.2,7.1,92,79,67,30.59,30.29,20,4,20,0.00
2013-12-25,27.8,20.1,10.6,24.1,13.6,7.7,89,76,59,30.57,30.24,14,2,15,0.00
2013-12-26,33.7,29.2,26.2,26.5,21.9,16.4,89,75,56,30.37,30.15,20,4,20,0.00
2013-12-27,43.2,35.1,26.9,30.6,26.4,19.7,77,70,60,30.39,30.25,15,3,17,0.00
2013-12-28,50.9,41.3,34.9,35.5,31.1,27.5,76,67,55,30.25,30.03,19,4,19,0.00
2013-12-29,42.5,40.0,30.4,40.4,33.7,25.7,95,80,52,30.03,29.73,20,2,20,0.15
2013-12-30,30.2,22.9,20.4,28.4,17.0,10.7,93,78,61,30.26,29.92,14,3,15,0.00
2013-12-31,22.7,20.2,18.1,19.3,15.6,11.4,90,82,72,30.36,30.12,24,4,24,0.00
2014-1-1,27.2,22.6,19.7,22.5,19.1,16.0,89,86,82,30.38,30.14,12,2,12,0.00
2014-1-2,22.0,17.8,11.5,19.2,14.9,7.3,92,88,82,30.14,29.83,27,5,27,0.00